Wetbulb
70.67 70.84 69.96 69.03 69.01 68.50 68.01 66.00 64.92 59.96 60.47 63.79 63.27 66.71 67.97 66.54 68.79 66.88 67.22 69.00 67.65 66.41 64.89 64.73 64.81 65.05 65.26 65.38 65.45 65.57 65.20 64.94 64.83 65.00 65.02 65.36 65.77 66.92
70.47 70.18 69.88 69.13 68.88 68.91 66.82 67.28 65.58 63.90 60.75 63.78 62.80 65.74 69.01 68.43 68.83 67.60 68.01 68.20 67.66 66.10 65.01 64.37 64.80 65.26 64.91 64.98 64.58 64.63 64.78 64.78 64.80 64.73 64.91 65.07 64.86 64.92
69.64 69.54 68.47 69.99 68.21 68.11 68.80 67.93 66.97 65.56 62.58 63.72 65.86 66.56 67.99 67.83 68.06 68.81 68.91 67.02 67.03 66.23 65.46 65.11 64.59 64.59 64.50 64.35 64.24 64.22 64.24 64.37 63.97 64.02 64.39 64.54 64.76 64.68
69.78 70.07 69.39 68.99 69.41 69.83 68.55 68.04 67.14 67.26 64.57 62.95 64.90 65.77 65.98 67.88 68.70 67.78 67.89 66.63 66.15 66.58 65.55 65.00 64.19 63.52 63.04 62.71 62.65 62.34 62.49 62.69 62.78 62.76 63.11 63.39 63.97 64.33
70.04 69.43 69.09 69.12 68.79 67.86 68.28 67.70 67.10 66.57 65.96 64.09 63.81 65.53 64.86 66.05 65.45 66.47 66.30 66.71 66.81 66.47 64.26 63.28 63.26 62.97 62.10 61.24 60.66 60.05 59.70 59.76 59.76 59.91 60.29 60.98 61.80 62.86
70.01 69.69 69.47 69.25 68.83 68.35 67.91 66.20 66.26 65.84 64.95 63.68 62.97 62.95 64.23 65.38 64.71 62.73 61.96 63.89 63.47 65.29 65.46 64.05 63.55 63.35 62.53 61.06 60.53 60.33 58.46 57.35 56.56 56.84 56.94 57.62 58.90 59.99
69.47 69.81 69.71 70.03 68.64 67.08 67.78 67.63 65.55 64.30 62.71 62.20 60.49 60.53 60.86 60.81 59.80 61.20 60.92 62.06 62.60 64.33 61.46 61.07 61.46 61.59 61.68 62.18 63.38 63.18 60.86 58.78 56.82 55.76 55.35 55.39 55.77 56.85
68.54 69.94 70.28 68.96 66.62 65.18 64.98 64.42 64.80 63.26 62.02 61.20 61.08 59.93 60.30 61.86 62.21 61.33 60.60 59.23 57.25 62.41 61.06 58.97 60.72 59.65 60.15 61.59 62.97 62.22 60.41 59.46 58.14 57.28 56.05 55.23 55.00 55.25
69.39 69.49 69.42 68.66 67.76 66.81 64.29 63.83 63.82 63.46 63.30 63.18 60.02 59.85 60.95 62.22 62.65 61.12 60.54 59.86 58.56 59.75 58.77 56.28 59.28 58.70 61.37 62.58 61.49 60.84 59.51 58.44 57.36 57.22 56.83 56.02 55.31 54.82
68.70 69.86 69.24 69.37 67.84 66.92 65.42 65.13 64.95 65.29 64.25 63.27 62.39 62.00 62.89 63.22 62.78 61.12 59.37 58.26 58.78 59.40 60.41 55.90 58.85 58.86 61.30 62.02 61.59 60.72 58.72 57.16 56.71 56.30 56.01 54.48 52.75 51.98
68.74 69.96 69.56 69.29 66.14 61.75 64.89 64.16 64.14 63.50 63.23 61.68 61.90 61.70 60.42 59.55 59.53 59.25 57.04 56.00 55.25 56.76 60.07 58.01 58.06 58.11 57.86 57.80 58.84 60.08 57.93 56.09 55.64 55.66 55.75 55.09 53.39 52.08
69.37 68.99 62.75 66.52 60.11 58.83 63.41 63.81 62.09 62.56 63.89 63.79 63.81 62.42 60.43 60.41 59.81 59.40 58.73 56.24 56.01 55.89 58.97 57.14 54.46 54.33 51.13 55.47 57.73 59.73 59.58 57.02 54.73 53.57 54.31 54.16 53.10 54.67
67.38 67.85 68.73 58.68 56.29 55.89 56.79 63.35 62.09 60.33 61.30 61.45 60.81 59.69 59.90 60.65 60.65 61.38 61.14 59.27 57.49 56.54 57.73 55.84 53.63 53.42 53.65 54.39 57.42 58.53 58.41 57.35 57.38 56.77 54.22 52.51 51.92 52.68
68.27 68.37 66.88 56.19 53.56 53.70 55.55 59.86 54.55 55.30 58.63 58.21 57.67 57.61 58.13 58.53 59.52 59.48 60.36 59.79 58.81 57.44 57.66 57.59 55.99 55.74 55.38 54.43 54.25 56.66 56.93 56.58 56.18 56.96 56.96 55.21 53.77 53.11
62.93 57.14 52.58 52.23 52.95 53.47 54.25 55.94 53.28 57.48 57.38 56.81 57.01 56.94 56.93 58.66 59.07 57.75 59.33 60.65 60.62 59.53 57.14 58.95 58.50 57.34 56.65 55.10 54.52 54.56 53.88 54.54 55.86 55.72 54.01 54.20 55.03 56.00
56.49 57.05 57.06 57.41 57.81 58.52 57.05 54.92 56.84 58.48 58.43 58.42 57.23 57.35 58.30 56.97 55.90 56.17 53.75 53.03 50.92 50.82 55.65 59.42 59.73 57.24 55.74 55.44 54.77 53.49 53.67 52.17 54.73 53.52 52.43 52.50 53.74 54.79
61.86 62.99 59.04 59.23 59.34 58.44 58.78 59.82 58.82 58.65 57.31 57.17 57.52 56.60 55.22 54.72 53.93 54.37 52.58 50.55 49.80 51.08 54.23 55.68 58.60 58.44 56.41 54.76 52.66 52.68 53.01 52.59 51.41 51.26 50.76 50.07 51.82 54.37
59.19 64.22 62.75 61.97 59.99 58.01 59.08 58.82 58.97 57.86 56.60 56.77 57.34 55.45 53.99 53.19 52.23 52.17 51.41 51.75 50.16 51.70 53.47 54.08 55.79 54.52 52.96 53.25 55.64 52.39 52.45 50.00 50.08 50.14 50.03 48.18 49.69 57.07
62.24 61.31 60.19 59.86 59.49 59.76 59.47 57.57 55.20 55.57 57.06 57.07 56.37 55.41 53.77 52.87 51.24 50.64 50.60 50.49 50.30 50.12 52.35 55.39 53.41 49.88 48.40 47.06 51.60 53.48 50.43 49.10 48.53 48.24 48.52 47.46 47.44 52.72
58.35 58.52 59.16 60.63 60.65 60.05 57.41 57.12 57.12 56.49 56.25 55.44 53.70 52.63 52.38 52.07 50.58 50.04 50.64 49.84 49.18 48.89 52.77 52.81 49.49 49.17 48.60 48.24 49.12 51.28 49.51 48.51 47.70 46.88 45.98 47.06 51.18 54.67
58.56 59.36 58.73 58.39 58.01 57.85 57.57 57.09 56.03 54.96 52.40 52.03 51.59 51.64 52.21 50.39 49.95 50.25 49.74 47.67 47.96 50.42 52.27 49.89 50.03 51.56 51.17 52.95 48.65 48.23 49.78 49.67 49.18 47.88 46.67 44.93 46.65 50.21
57.58 56.76 56.90 57.28 57.08 56.65 56.32 55.45 54.07 53.24 52.86 53.02 52.57 51.69 51.69 50.85 49.19 49.18 49.07 48.91 49.00 50.05 50.21 50.88 51.80 51.92 49.58 47.78 47.19 47.51 47.44 48.88 49.32 49.41 48.87 47.66 45.05 44.01
58.53 57.65 57.31 57.17 57.01 56.11 55.17 52.64 51.50 51.84 52.42 51.52 50.69 50.40 50.81 49.22 50.72 49.63 49.50 49.53 48.86 49.27 47.94 50.45 51.54 49.49 47.49 46.90 47.42 47.05 45.45 46.21 46.19 44.75 44.67 47.11 47.62 48.18
MSLP
1017.22 1017.50 1017.64 1017.64 1017.49 1017.48 1017.46 1017.68 1017.92 1018.32 1018.14 1017.73 1017.90 1016.90 1016.74 1016.95 1017.18 1017.56 1017.58 1017.67 1017.84 1018.05 1018.06 1018.09 1018.01 1017.93 1018.05 1018.21 1018.19 1018.10 1018.15 1018.04 1017.94 1017.83 1017.79 1017.74 1017.71 1017.70
1016.94 1017.12 1017.24 1017.41 1017.60 1017.49 1017.45 1017.64 1017.78 1018.05 1018.16 1017.78 1017.52 1017.53 1017.20 1017.02 1017.00 1017.06 1017.01 1017.09 1017.21 1017.27 1017.23 1017.24 1017.27 1017.37 1017.42 1017.40 1017.35 1017.34 1017.42 1017.49 1017.49 1017.45 1017.34 1017.37 1017.34 1017.31
1016.44 1016.71 1016.97 1017.33 1017.55 1017.45 1017.51 1017.61 1017.78 1017.78 1017.97 1017.72 1017.43 1017.14 1017.06 1017.02 1016.81 1016.69 1016.72 1016.76 1016.62 1016.52 1016.53 1016.49 1016.36 1016.26 1016.42 1016.62 1016.71 1016.65 1016.62 1016.62 1016.68 1016.79 1016.68 1016.71 1016.79 1016.71
1016.10 1016.41 1016.78 1016.96 1017.27 1017.44 1017.39 1017.35 1017.43 1017.47 1017.71 1017.64 1017.37 1017.13 1016.85 1016.62 1016.40 1016.35 1016.19 1016.05 1016.05 1015.84 1015.67 1015.44 1015.32 1015.42 1015.58 1015.71 1015.87 1015.93 1015.77 1015.76 1015.87 1015.86 1015.86 1015.80 1015.88 1016.05
1015.58 1015.86 1016.21 1016.52 1016.69 1016.80 1017.03 1017.11 1017.28 1017.43 1017.49 1017.53 1017.45 1016.99 1016.60 1016.36 1016.16 1016.06 1015.94 1015.82 1015.61 1015.37 1015.10 1014.76 1014.52 1014.53 1014.59 1014.63 1014.77 1014.89 1014.84 1014.90 1014.97 1015.05 1015.01 1014.98 1015.05 1015.23
1015.04 1015.37 1015.52 1015.72 1015.96 1016.51 1016.76 1016.97 1017.01 1017.28 1017.44 1017.57 1017.35 1017.00 1016.57 1016.21 1016.20 1016.28 1016.02 1015.65 1015.27 1014.70 1014.55 1014.21 1013.84 1013.77 1013.69 1013.68 1013.82 1013.95 1013.92 1013.87 1013.94 1014.01 1014.21 1014.34 1014.29 1014.33
1014.49 1014.78 1015.15 1015.23 1015.45 1015.82 1016.27 1016.54 1016.89 1017.01 1017.22 1017.10 1017.14 1016.92 1016.49 1016.33 1016.23 1016.09 1015.96 1015.40 1014.89 1014.54 1014.37 1014.21 1013.73 1013.65 1013.47 1013.26 1013.09 1012.94 1013.06 1013.13 1013.18 1013.27 1013.27 1013.22 1013.29 1013.23
1014.16 1014.17 1014.47 1014.89 1015.21 1015.49 1015.91 1016.10 1016.18 1016.54 1016.67 1016.82 1016.78 1016.87 1016.54 1016.31 1015.97 1016.00 1015.91 1015.61 1015.15 1014.49 1014.32 1014.14 1013.93 1013.67 1013.20 1012.81 1012.29 1012.08 1012.01 1012.10 1012.16 1012.04 1012.18 1012.16 1012.23 1012.28
1013.43 1013.69 1013.99 1014.53 1014.94 1015.37 1015.42 1015.56 1015.76 1016.02 1016.18 1016.27 1016.32 1016.18 1016.35 1016.06 1015.91 1016.02 1015.74 1015.58 1015.29 1014.72 1014.43 1013.79 1013.66 1013.24 1012.64 1012.00 1011.64 1011.30 1011.09 1011.08 1011.26 1011.33 1011.13 1010.97 1010.86 1010.77
1012.80 1012.89 1013.25 1013.68 1014.24 1014.82 1015.14 1015.29 1015.34 1015.37 1015.38 1015.59 1015.72 1015.41 1015.34 1015.21 1015.29 1015.46 1015.30 1014.95 1014.57 1014.01 1013.67 1013.35 1012.91 1012.35 1011.77 1011.16 1010.83 1010.60 1010.66 1010.59 1010.50 1010.25 1009.96 1009.74 1009.56 1009.40
1012.32 1012.61 1012.78 1013.32 1013.78 1014.49 1014.78 1014.83 1014.95 1014.92 1014.65 1014.74 1014.67 1014.49 1014.61 1014.54 1014.53 1014.75 1014.53 1014.55 1014.08 1013.40 1012.96 1012.56 1012.23 1011.63 1011.23 1010.84 1010.33 1010.00 1009.88 1009.78 1009.50 1009.18 1008.71 1008.38 1008.08 1007.81
1011.93 1012.12 1012.49 1013.03 1013.58 1014.15 1014.44 1014.38 1014.43 1014.27 1014.03 1013.93 1014.09 1014.07 1013.97 1013.86 1013.65 1013.80 1013.65 1013.86 1013.77 1013.20 1012.65 1012.37 1012.01 1011.65 1010.69 1010.32 1009.86 1009.56 1009.20 1008.79 1008.29 1007.82 1007.34 1006.84 1006.41 1006.14
1011.65 1011.99 1012.25 1012.59 1013.17 1013.89 1014.34 1014.42 1014.20 1013.98 1013.97 1013.86 1013.82 1013.56 1013.23 1013.00 1012.63 1012.33 1012.77 1013.40 1013.26 1012.81 1012.17 1011.89 1011.51 1011.18 1010.86 1009.99 1009.31 1009.10 1008.68 1007.85 1007.07 1006.53 1006.07 1005.57 1004.72 1004.32
1011.46 1011.55 1011.81 1012.17 1012.87 1013.45 1014.17 1014.28 1014.31 1014.05 1014.03 1013.84 1013.65 1013.20 1012.82 1012.36 1012.18 1012.26 1012.20 1012.15 1012.05 1011.91 1011.34 1011.19 1010.92 1010.75 1010.64 1010.11 1009.10 1008.00 1007.61 1006.96 1006.47 1005.42 1004.76 1004.08 1003.12 1002.14
1011.57 1011.79 1011.84 1011.83 1012.74 1013.26 1013.81 1014.13 1014.06 1013.92 1013.81 1013.60 1013.18 1012.95 1012.75 1012.30 1012.10 1012.00 1011.74 1011.48 1011.43 1011.04 1010.64 1010.40 1010.38 1010.20 1010.38 1009.91 1008.95 1007.79 1006.92 1005.79 1005.23 1004.60 1003.97 1002.98 1001.99 1001.16
1011.46 1011.82 1012.15 1012.45 1012.50 1012.59 1013.16 1013.54 1013.50 1013.35 1013.26 1013.05 1012.87 1012.60 1012.37 1012.37 1012.25 1011.99 1011.92 1011.56 1011.40 1010.88 1010.06 1009.78 1009.63 1009.83 1009.78 1009.44 1008.58 1007.45 1006.85 1005.95 1004.70 1003.93 1003.09 1001.82 1000.48 999.62
1011.27 1011.63 1011.98 1011.95 1011.82 1012.09 1012.18 1012.33 1012.67 1012.80 1012.87 1012.67 1012.46 1012.47 1012.46 1012.45 1012.25 1011.90 1011.69 1011.46 1011.20 1010.54 1010.01 1009.59 1009.29 1009.26 1009.22 1009.08 1008.12 1006.99 1006.06 1005.22 1004.69 1003.58 1002.50 1000.57 998.70 997.21
1010.84 1010.84 1011.18 1011.02 1010.94 1011.09 1011.34 1011.67 1011.99 1012.25 1012.28 1012.19 1012.20 1012.41 1012.43 1012.27 1012.12 1011.81 1011.46 1011.14 1010.91 1010.42 1009.92 1009.48 1009.41 1009.13 1008.64 1008.14 1007.62 1006.85 1006.05 1005.34 1004.12 1002.91 1001.66 1000.15 997.39 994.97
1010.40 1010.49 1010.51 1010.40 1010.57 1010.78 1011.08 1011.33 1011.49 1011.70 1011.73 1011.85 1011.98 1012.16 1012.16 1012.00 1011.79 1011.55 1011.22 1010.87 1010.58 1010.24 1009.70 1009.45 1009.74 1009.66 1009.13 1008.22 1007.23 1006.62 1006.13 1005.10 1003.69 1002.03 1000.91 999.42 997.02 994.61
1010.43 1010.14 1009.98 1010.01 1010.20 1010.57 1010.81 1010.94 1011.24 1011.48 1011.69 1011.90 1012.09 1012.08 1011.96 1011.73 1011.56 1011.30 1010.90 1010.68 1010.36 1009.90 1009.56 1009.68 1009.84 1009.77 1009.56 1008.78 1007.65 1006.62 1006.11 1005.43 1004.08 1002.34 1000.25 998.32 996.41 993.67
1009.95 1009.73 1009.75 1010.00 1010.34 1010.54 1010.86 1011.17 1011.50 1011.80 1012.09 1012.21 1012.19 1012.02 1011.73 1011.61 1011.35 1011.03 1010.74 1010.35 1009.98 1009.58 1009.53 1009.78 1009.89 1009.66 1009.37 1008.63 1007.96 1007.13 1006.12 1005.38 1004.70 1003.45 1001.89 999.55 997.48 995.34
1009.69 1009.92 1010.01 1010.30 1010.72 1010.99 1011.29 1011.55 1011.77 1011.83 1011.78 1011.75 1011.82 1011.70 1011.60 1011.45 1011.26 1010.97 1010.63 1010.22 1009.80 1009.40 1009.32 1009.40 1009.52 1009.28 1009.11 1009.00 1008.47 1007.68 1006.63 1005.55 1004.67 1003.78 1002.86 1002.05 1000.67 998.89
1009.74 1010.07 1010.46 1010.60 1010.86 1011.13 1011.41 1011.62 1011.65 1011.51 1011.46 1011.53 1011.68 1011.74 1011.66 1011.54 1011.13 1010.94 1010.54 1010.06 1009.72 1009.39 1009.22 1009.11 1009.19 1009.10 1009.25 1009.21 1008.75 1008.08 1007.36 1006.15 1005.22 1004.14 1003.39 1002.61 1002.00 1000.68
Wind_Speed
5 5 3 4 3 3 2 0 1 2 3 4 4 3 3 4 6 6 4 5 12 13 14 14 14 12 12 13 12 11 11 11 11 11 10 11 14 15
4 5 6 1 3 3 3 1 2 3 2 0 3 3 5 4 3 5 5 7 11 16 18 18 16 15 15 15 15 14 13 13 12 13 12 12 12 14
4 3 3 2 3 3 2 2 2 3 3 4 2 3 2 3 5 4 5 6 7 15 18 18 19 19 18 17 16 16 16 16 16 15 15 14 14 14
8 6 5 5 7 5 3 5 3 3 3 6 4 3 5 6 6 5 5 5 5 8 12 14 16 16 16 18 18 19 17 16 17 17 15 17 16 15
7 6 6 6 5 4 3 3 3 4 3 4 4 4 4 4 5 4 4 4 5 11 15 17 17 15 18 20 20 19 19 17 18 17 18 18 17 16
8 8 8 7 7 6 5 5 4 3 4 5 6 7 4 3 1 2 4 4 6 9 11 11 7 14 21 20 20 19 20 21 19 19 17 16 18 20
8 8 7 8 6 7 3 3 2 1 1 2 8 7 7 5 6 5 5 5 3 3 4 6 5 5 6 9 15 19 20 18 17 17 19 19 20 22
9 7 6 6 6 9 8 8 6 4 4 2 3 7 9 5 4 6 6 7 8 4 3 8 5 8 10 10 13 16 11 17 18 18 18 18 20 21
10 8 7 5 8 7 8 8 8 10 8 3 6 8 10 9 4 7 6 6 8 8 9 10 6 9 10 10 14 16 13 12 11 15 18 20 22 24
9 10 8 7 8 8 6 5 6 6 7 6 9 10 11 10 5 5 7 7 8 8 8 8 8 10 10 8 15 16 9 10 13 18 21 17 18 21
8 7 7 9 9 8 6 6 5 6 7 14 16 17 10 8 9 4 8 6 9 7 4 6 8 8 6 8 8 10 11 12 19 23 25 26 26 25
7 8 10 9 8 10 8 6 7 8 6 6 3 4 7 10 16 11 10 9 9 8 7 4 8 9 10 9 7 8 10 17 19 20 25 29 30 16
6 6 6 12 10 9 9 6 5 2 5 4 5 6 7 8 10 9 7 6 7 9 6 7 9 9 9 10 9 9 11 12 13 14 18 21 25 24
4 4 5 6 10 10 8 7 2 2 4 5 6 7 7 4 3 2 4 5 6 9 10 10 8 7 7 11 13 10 11 12 11 12 10 15 21 23
3 4 8 10 8 7 8 8 5 3 5 6 6 4 4 4 5 5 6 6 6 6 7 4 3 4 6 9 12 12 15 13 13 8 12 14 14 13
7 5 6 7 7 4 7 7 5 5 5 4 4 4 4 3 4 3 3 3 5 8 8 5 3 4 5 9 11 14 12 11 11 13 13 16 16 15
5 4 5 5 6 7 6 7 7 6 4 5 2 3 3 4 3 4 3 5 7 6 4 5 5 5 5 9 12 12 13 11 12 13 15 16 16 16
4 4 5 7 7 4 6 4 4 7 4 2 2 2 4 3 4 4 4 4 5 6 4 6 5 6 7 5 12 11 10 12 13 13 13 14 15 16
2 3 4 5 4 4 4 4 4 4 5 1 2 3 3 4 5 4 5 4 4 6 7 3 4 4 7 10 7 1 11 12 11 12 12 13 15 14
3 5 4 2 1 3 2 2 4 4 4 4 4 4 5 3 4 5 4 4 4 6 3 4 2 2 3 5 8 12 10 12 11 13 16 15 12 23
4 2 4 4 4 4 5 4 4 3 3 2 3 5 3 4 4 5 5 7 7 5 2 2 3 9 6 6 6 8 10 14 14 11 15 13 14 8
4 4 4 4 4 4 4 3 2 3 4 3 3 3 3 4 5 5 6 5 5 4 3 3 3 2 4 3 8 11 10 12 13 17 21 23 13 11
3 3 3 3 2 2 2 1 4 3 2 2 3 4 4 4 4 5 7 5 6 4 5 4 2 3 3 3 8 8 14 12 11 11 11 24 25 25
Wind_Direction
182 195 220 288 326 311 26 154 168 345 321 340 348 284 143 172 161 194 201 205 200 210 223 234 239 246 241 247 254 258 267 275 280 287 286 288 292 293
187 212 191 218 306 305 258 122 146 154 243 136 285 311 27 9 181 216 228 242 209 214 222 229 231 233 236 242 242 244 249 254 260 264 265 265 269 279
197 201 146 196 265 284 7 345 280 206 208 287 245 264 281 263 258 255 233 238 242 225 232 238 232 226 226 234 239 240 238 239 246 250 256 259 260 262
187 180 192 209 213 227 259 260 275 302 249 259 271 291 275 258 239 227 241 265 252 264 267 243 236 224 225 228 231 239 243 239 240 240 239 248 253 253
193 185 203 214 212 227 230 260 298 293 312 265 273 264 266 270 273 257 249 263 272 267 264 263 250 227 227 229 229 232 237 238 235 236 236 238 248 249
191 204 202 206 203 202 215 246 246 287 307 301 291 280 278 278 97 288 279 248 254 265 274 272 253 237 238 240 238 238 237 239 236 235 240 238 241 247
200 204 219 219 151 136 192 185 153 115 293 309 299 307 305 315 306 294 282 281 310 268 316 304 300 312 305 247 244 248 252 248 246 240 237 238 240 244
218 209 212 155 149 145 160 180 170 182 216 222 279 280 284 290 319 323 321 308 298 290 320 303 311 310 301 284 267 274 239 233 238 242 245 244 243 242
208 209 209 194 161 173 184 190 205 219 218 215 233 247 279 280 293 284 284 296 284 291 293 284 282 279 275 276 278 260 272 298 232 238 240 241 241 240
212 210 200 199 185 192 192 212 232 237 214 209 229 246 247 253 238 244 262 264 268 264 243 270 279 274 270 263 265 271 250 245 268 277 279 257 246 242
230 221 198 212 199 201 201 221 242 254 238 236 237 249 241 232 241 264 270 273 275 275 275 277 282 285 302 293 290 301 291 290 287 277 277 275 270 264
218 225 219 219 197 187 210 222 243 259 245 276 309 261 252 251 248 242 250 254 262 282 273 301 312 311 299 287 291 297 287 279 271 268 275 276 271 264
227 231 220 202 192 219 217 254 262 355 319 308 286 277 263 255 252 253 236 238 262 269 274 287 288 289 285 308 291 286 286 287 287 282 269 263 261 246
240 236 226 164 181 193 194 239 172 355 285 283 278 273 281 279 5 3 228 236 250 255 277 274 275 290 297 299 295 298 290 291 285 279 281 283 283 260
53 103 124 118 144 154 193 181 189 235 254 262 270 287 316 315 327 315 284 275 266 278 273 266 293 307 308 299 294 300 306 304 290 283 295 290 286 279
131 130 159 175 180 164 168 206 222 233 246 258 288 290 283 330 309 300 308 307 307 292 273 341 5 355 306 294 295 299 299 299 296 305 300 293 282 269
186 183 194 206 199 200 203 197 202 219 236 249 278 310 337 301 301 312 305 303 289 306 306 316 316 278 285 303 301 295 296 301 310 302 298 293 287 268
192 208 216 232 221 195 187 185 181 211 234 264 32 340 290 309 291 289 282 280 300 300 316 309 333 324 321 295 278 294 305 317 310 303 297 298 296 300
246 283 278 274 135 150 166 182 206 165 181 170 242 258 283 276 294 297 285 299 302 305 296 358 3 347 322 316 291 297 323 324 316 315 320 312 296 286
261 249 238 356 91 148 164 44 44 31 23 14 3 342 292 288 301 293 297 301 297 296 308 30 351 294 298 301 313 311 336 325 330 332 333 322 303 283
205 298 35 33 40 37 48 52 51 16 19 336 285 267 297 324 308 301 312 306 304 297 27 4 286 281 272 289 320 317 331 341 340 341 342 334 336 337
47 27 25 64 50 45 41 30 334 264 253 216 253 344 316 326 309 321 310 308 312 317 353 182 265 318 15 319 325 328 331 335 345 351 5 10 355 353
73 72 33 56 46 149 172 266 271 258 287 28 12 357 346 314 309 322 308 321 327 345 340 346 76 52 3 324 320 337 340 345 351 359 4 0 9 16